Location: Newark
(47.5833°N, 8.1500°E)
Time: 10:12:11
(UTC+00:00)

Altair - Pass Details

Date: 03 November 2020
Orbit: 1502 x 1682 km, 47.2° (Epoch: 25 November)

Event Time Altitude Azimuth Distance (km) Brightness Sun altitude
Exits shadow 05:29:09 - 264° (W) 3,975 9.1 -8.2°
Reaches altitude 10° 05:30:03 10° 264° (W) 3,685 8.9 -8.0°
Maximum altitude 05:39:24 88° 178° (S) 1,562 7.6 -6.5°
Drops below altitude 10° 05:49:07 10° 89° (E) 3,819 11.1 -4.9°
Sets 05:52:16 0° 89° (E) 4,828 11.8 -4.4°
